Data supplied by UK-AIR on 5/4/2008
All Data GMT hour ending 
Status: R =Ratified P=Provisional,P*=As supplied
,,London Bloomsbury,,,,,,,,,,,,,,,,,,,,,,,
Date,time,"Carbon monoxide",status,unit,"PM10 particulate matter (Hourly measured)",status,unit,"Nitric oxide",status,unit,"Nitrogen dioxide",status,unit,"Nitrogen oxides as nitrogen dioxide",status,unit,"Ozone",status,unit,"Sulphur dioxide",status,unit
 
01-01-1995,01:00,1.4,R,mgm-3,20,R,ugm-3 (GRAV EQ),39,R,ugm-3,52,R,ugm-3,111,R,ugm-3,12,R,ugm-3,13,R,ugm-3
01-01-1995,02:00,1.6,R,mgm-3,27,R,ugm-3 (GRAV EQ),30,R,ugm-3,53,R,ugm-3,99,R,ugm-3,10,R,ugm-3,13,R,ugm-3
01-01-1995,03:00,1.3,R,mgm-3,20,R,ugm-3 (GRAV EQ),31,R,ugm-3,53,R,ugm-3,101,R,ugm-3,10,R,ugm-3,16,R,ugm-3
01-01-1995,04:00,1.2,R,mgm-3,18,R,ugm-3 (GRAV EQ),23,R,ugm-3,48,R,ugm-3,82,R,ugm-3,10,R,ugm-3,19,R,ugm-3
01-01-1995,05:00,1.0,R,mgm-3,17,R,ugm-3 (GRAV EQ),10,R,ugm-3,50,R,ugm-3,65,R,ugm-3,12,R,ugm-3,16,R,ugm-3
01-01-1995,06:00,0.9,R,mgm-3,10,R,ugm-3 (GRAV EQ),5,R,ugm-3,46,R,ugm-3,53,R,ugm-3,20,R,ugm-3,13,R,ugm-3
01-01-1995,07:00,0.9,R,mgm-3,13,R,ugm-3 (GRAV EQ),6,R,ugm-3,44,R,ugm-3,53,R,ugm-3,22,R,ugm-3,11,R,ugm-3
01-01-1995,08:00,0.9,R,mgm-3,12,R,ugm-3 (GRAV EQ),6,R,ugm-3,50,R,ugm-3,59,R,ugm-3,16,R,ugm-3,13,R,ugm-3
01-01-1995,09:00,0.8,R,mgm-3,18,R,ugm-3 (GRAV EQ),11,R,ugm-3,52,R,ugm-3,69,R,ugm-3,14,R,ugm-3,16,R,ugm-3
01-01-1995,10:00,0.8,R,mgm-3,21,R,ugm-3 (GRAV EQ),23,R,ugm-3,57,R,ugm-3,92,R,ugm-3,12,R,ugm-3,27,R,ugm-3
01-01-1995,11:00,0.8,R,mgm-3,16,R,ugm-3 (GRAV EQ),15,R,ugm-3,44,R,ugm-3,67,R,ugm-3,22,R,ugm-3,21,R,ugm-3
01-01-1995,12:00,0.8,R,mgm-3,20,R,ugm-3 (GRAV EQ),13,R,ugm-3,44,R,ugm-3,63,R,ugm-3,30,R,ugm-3,13,R,ugm-3
01-01-1995,13:00,0.7,R,mgm-3,12,R,ugm-3 (GRAV EQ),9,R,ugm-3,31,R,ugm-3,44,R,ugm-3,40,R,ugm-3,8,R,ugm-3
01-01-1995,14:00,0.7,R,mgm-3,12,R,ugm-3 (GRAV EQ),8,R,ugm-3,34,R,ugm-3,46,R,ugm-3,38,R,ugm-3,8,R,ugm-3
01-01-1995,15:00,0.9,R,mgm-3,18,R,ugm-3 (GRAV EQ),11,R,ugm-3,52,R,ugm-3,69,R,ugm-3,24,R,ugm-3,5,R,ugm-3
01-01-1995,16:00,0.8,R,mgm-3,9,R,ugm-3 (GRAV EQ),10,R,ugm-3,46,R,ugm-3,61,R,ugm-3,30,R,ugm-3,5,R,ugm-3
01-01-1995,17:00,0.8,R,mgm-3,14,R,ugm-3 (GRAV EQ),25,R,ugm-3,57,R,ugm-3,96,R,ugm-3,18,R,ugm-3,16,R,ugm-3
01-01-1995,18:00,0.9,R,mgm-3,1,R,ugm-3 (GRAV EQ),38,R,ugm-3,63,R,ugm-3,120,R,ugm-3,14,R,ugm-3,24,R,ugm-3
01-01-1995,19:00,0.9,R,mgm-3,5,R,ugm-3 (GRAV EQ),36,R,ugm-3,63,R,ugm-3,118,R,ugm-3,14,R,ugm-3,21,R,ugm-3
01-01-1995,20:00,0.8,R,mgm-3,9,R,ugm-3 (GRAV EQ),35,R,ugm-3,61,R,ugm-3,115,R,ugm-3,12,R,ugm-3,16,R,ugm-3
01-01-1995,21:00,0.5,R,mgm-3,12,R,ugm-3 (GRAV EQ),28,R,ugm-3,55,R,ugm-3,97,R,ugm-3,16,R,ugm-3,21,R,ugm-3
01-01-1995,22:00,0.5,R,mgm-3,10,R,ugm-3 (GRAV EQ),20,R,ugm-3,52,R,ugm-3,82,R,ugm-3,20,R,ugm-3,16,R,ugm-3
01-01-1995,23:00,0.6,R,mgm-3,13,R,ugm-3 (GRAV EQ),24,R,ugm-3,50,R,ugm-3,86,R,ugm-3,20,R,ugm-3,11,R,ugm-3
01-01-1995,24:00,0.5,R,mgm-3,13,R,ugm-3 (GRAV EQ),20,R,ugm-3,48,R,ugm-3,78,R,ugm-3,24,R,ugm-3,11,R,ugm-3
02-01-1995,01:00,0.5,R,mgm-3,10,R,ugm-3 (GRAV EQ),19,R,ugm-3,44,R,ugm-3,73,R,ugm-3,28,R,ugm-3,13,R,ugm-3
02-01-1995,02:00,0.3,R,mgm-3,12,R,ugm-3 (GRAV EQ),4,R,ugm-3,31,R,ugm-3,36,R,ugm-3,42,R,ugm-3,8,R,ugm-3
02-01-1995,03:00,0.3,R,mgm-3,12,R,ugm-3 (GRAV EQ),6,R,ugm-3,27,R,ugm-3,36,R,ugm-3,44,R,ugm-3,8,R,ugm-3
02-01-1995,04:00,0.2,R,mgm-3,9,R,ugm-3 (GRAV EQ),4,R,ugm-3,21,R,ugm-3,27,R,ugm-3,50,R,ugm-3,13,R,ugm-3
02-01-1995,05:00,0.3,R,mgm-3,9,R,ugm-3 (GRAV EQ),5,R,ugm-3,21,R,ugm-3,29,R,ugm-3,50,R,ugm-3,16,R,ugm-3
02-01-1995,06:00,0.3,R,mgm-3,12,R,ugm-3 (GRAV EQ),5,R,ugm-3,25,R,ugm-3,32,R,ugm-3,46,R,ugm-3,16,R,ugm-3
02-01-1995,07:00,0.3,R,mgm-3,14,R,ugm-3 (GRAV EQ),11,R,ugm-3,40,R,ugm-3,57,R,ugm-3,34,R,ugm-3,16,R,ugm-3
02-01-1995,08:00,0.2,R,mgm-3,16,R,ugm-3 (GRAV EQ),11,R,ugm-3,44,R,ugm-3,61,R,ugm-3,30,R,ugm-3,19,R,ugm-3
02-01-1995,09:00,0.2,R,mgm-3,18,R,ugm-3 (GRAV EQ),18,R,ugm-3,50,R,ugm-3,76,R,ugm-3,22,R,ugm-3,21,R,ugm-3
02-01-1995,10:00,0.3,R,mgm-3,20,R,ugm-3 (GRAV EQ),20,R,ugm-3,46,R,ugm-3,76,R,ugm-3,24,R,ugm-3,16,R,ugm-3
02-01-1995,11:00,0.5,R,mgm-3,22,R,ugm-3 (GRAV EQ),31,R,ugm-3,50,R,ugm-3,97,R,ugm-3,26,R,ugm-3,19,R,ugm-3
02-01-1995,12:00,0.6,R,mgm-3,25,R,ugm-3 (GRAV EQ),34,R,ugm-3,50,R,ugm-3,101,R,ugm-3,24,R,ugm-3,16,R,ugm-3
02-01-1995,13:00,0.7,R,mgm-3,26,R,ugm-3 (GRAV EQ),39,R,ugm-3,53,R,ugm-3,113,R,ugm-3,22,R,ugm-3,24,R,ugm-3
02-01-1995,14:00,0.7,R,mgm-3,27,R,ugm-3 (GRAV EQ),43,R,ugm-3,57,R,ugm-3,122,R,ugm-3,18,R,ugm-3,24,R,ugm-3
02-01-1995,15:00,0.8,R,mgm-3,29,R,ugm-3 (GRAV EQ),46,R,ugm-3,63,R,ugm-3,134,R,ugm-3,14,R,ugm-3,24,R,ugm-3
02-01-1995,16:00,0.9,R,mgm-3,29,R,ugm-3 (GRAV EQ),46,R,ugm-3,69,R,ugm-3,139,R,ugm-3,,,,24,R,ugm-3
02-01-1995,17:00,1.0,R,mgm-3,34,R,ugm-3 (GRAV EQ),53,R,ugm-3,69,R,ugm-3,149,R,ugm-3,,,,27,R,ugm-3
02-01-1995,18:00,1.0,R,mgm-3,34,R,ugm-3 (GRAV EQ),44,R,ugm-3,69,R,ugm-3,136,R,ugm-3,,,,27,R,ugm-3
02-01-1995,19:00,1.0,R,mgm-3,33,R,ugm-3 (GRAV EQ),46,R,ugm-3,69,R,ugm-3,139,R,ugm-3,,,,27,R,ugm-3
02-01-1995,20:00,1.0,R,mgm-3,34,R,ugm-3 (GRAV EQ),54,R,ugm-3,69,R,ugm-3,151,R,ugm-3,,,,32,R,ugm-3
02-01-1995,21:00,0.9,R,mgm-3,36,R,ugm-3 (GRAV EQ),69,R,ugm-3,71,R,ugm-3,176,R,ugm-3,,,,51,R,ugm-3
02-01-1995,22:00,0.9,R,mgm-3,38,R,ugm-3 (GRAV EQ),78,R,ugm-3,71,R,ugm-3,189,R,ugm-3,,,,64,R,ugm-3
02-01-1995,23:00,0.9,R,mgm-3,36,R,ugm-3 (GRAV EQ),80,R,ugm-3,69,R,ugm-3,191,R,ugm-3,,,,72,R,ugm-3
02-01-1995,24:00,0.7,R,mgm-3,38,R,ugm-3 (GRAV EQ),58,R,ugm-3,67,R,ugm-3,155,R,ugm-3,,,,77,R,ugm-3
03-01-1995,01:00,0.7,R,mgm-3,36,R,ugm-3 (GRAV EQ),65,R,ugm-3,65,R,ugm-3,164,R,ugm-3,,,,72,R,ugm-3
03-01-1995,02:00,0.7,R,mgm-3,38,R,ugm-3 (GRAV EQ),75,R,ugm-3,63,R,ugm-3,178,R,ugm-3,,,,80,R,ugm-3
03-01-1995,03:00,0.7,R,mgm-3,35,R,ugm-3 (GRAV EQ),74,R,ugm-3,65,R,ugm-3,178,R,ugm-3,,,,74,R,ugm-3
03-01-1995,04:00,0.6,R,mgm-3,40,R,ugm-3 (GRAV EQ),84,R,ugm-3,67,R,ugm-3,195,R,ugm-3,,,,85,R,ugm-3
03-01-1995,05:00,0.5,R,mgm-3,39,R,ugm-3 (GRAV EQ),73,R,ugm-3,185,R,ugm-3,296,R,ugm-3,,,,106,R,ugm-3
03-01-1995,06:00,0.5,R,mgm-3,36,R,ugm-3 (GRAV EQ),81,R,ugm-3,69,R,ugm-3,193,R,ugm-3,,,,112,R,ugm-3
03-01-1995,07:00,0.6,R,mgm-3,43,R,ugm-3 (GRAV EQ),126,R,ugm-3,61,R,ugm-3,254,R,ugm-3,,,,109,R,ugm-3
03-01-1995,08:00,1.3,R,mgm-3,61,R,ugm-3 (GRAV EQ),299,R,ugm-3,78,R,ugm-3,535,R,ugm-3,,,,109,R,ugm-3
03-01-1995,09:00,1.6,R,mgm-3,73,R,ugm-3 (GRAV EQ),326,R,ugm-3,86,R,ugm-3,584,R,ugm-3,,,,154,R,ugm-3
03-01-1995,10:00,1.9,R,mgm-3,88,R,ugm-3 (GRAV EQ),373,R,ugm-3,97,R,ugm-3,667,R,ugm-3,,,,197,R,ugm-3
03-01-1995,11:00,2.3,R,mgm-3,121,R,ugm-3 (GRAV EQ),455,R,ugm-3,128,R,ugm-3,823,R,ugm-3,,,,253,R,ugm-3
03-01-1995,12:00,2.2,R,mgm-3,124,R,ugm-3 (GRAV EQ),441,R,ugm-3,145,R,ugm-3,819,R,ugm-3,,,,223,R,ugm-3
03-01-1995,13:00,2.7,R,mgm-3,121,R,ugm-3 (GRAV EQ),423,R,ugm-3,170,R,ugm-3,816,R,ugm-3,,,,122,R,ugm-3
03-01-1995,14:00,1.5,R,mgm-3,94,R,ugm-3 (GRAV EQ),270,R,ugm-3,128,R,ugm-3,541,R,ugm-3,,,,141,R,ugm-3
03-01-1995,15:00,1.2,R,mgm-3,72,R,ugm-3 (GRAV EQ),225,R,ugm-3,115,R,ugm-3,458,R,ugm-3,,,,64,R,ugm-3
03-01-1995,16:00,1.3,R,mgm-3,70,R,ugm-3 (GRAV EQ),211,R,ugm-3,118,R,ugm-3,441,R,ugm-3,,,,69,R,ugm-3
03-01-1995,17:00,2.7,R,mgm-3,120,R,ugm-3 (GRAV EQ),376,R,ugm-3,153,R,ugm-3,728,R,ugm-3,,,,98,R,ugm-3
03-01-1995,18:00,3.6,R,mgm-3,157,R,ugm-3 (GRAV EQ),558,R,ugm-3,185,R,ugm-3,1037,R,ugm-3,,,,128,R,ugm-3
03-01-1995,19:00,4.1,R,mgm-3,172,R,ugm-3 (GRAV EQ),604,R,ugm-3,202,R,ugm-3,1125,R,ugm-3,,,,130,R,ugm-3
03-01-1995,20:00,2.3,R,mgm-3,100,R,ugm-3 (GRAV EQ),384,R,ugm-3,136,R,ugm-3,722,R,ugm-3,,,,67,R,ugm-3
03-01-1995,21:00,1.9,R,mgm-3,81,R,ugm-3 (GRAV EQ),318,R,ugm-3,103,R,ugm-3,588,R,ugm-3,,,,51,R,ugm-3
03-01-1995,22:00,0.9,R,mgm-3,51,R,ugm-3 (GRAV EQ),183,R,ugm-3,84,R,ugm-3,363,R,ugm-3,,,,37,R,ugm-3
03-01-1995,23:00,0.7,R,mgm-3,36,R,ugm-3 (GRAV EQ),125,R,ugm-3,82,R,ugm-3,273,R,ugm-3,,,,29,R,ugm-3
03-01-1995,24:00,0.2,R,mgm-3,38,R,ugm-3 (GRAV EQ),96,R,ugm-3,71,R,ugm-3,218,R,ugm-3,,,,27,R,ugm-3
04-01-1995,01:00,0.0,R,mgm-3,31,R,ugm-3 (GRAV EQ),70,R,ugm-3,65,R,ugm-3,172,R,ugm-3,,,,24,R,ugm-3
04-01-1995,02:00,,,,30,R,ugm-3 (GRAV EQ),51,R,ugm-3,61,R,ugm-3,139,R,ugm-3,,,,24,R,ugm-3
04-01-1995,03:00,,,,23,R,ugm-3 (GRAV EQ),44,R,ugm-3,71,R,ugm-3,138,R,ugm-3,,,,24,R,ugm-3
04-01-1995,04:00,,,,20,R,ugm-3 (GRAV EQ),38,R,ugm-3,61,R,ugm-3,118,R,ugm-3,,,,24,R,ugm-3
04-01-1995,05:00,,,,16,R,ugm-3 (GRAV EQ),26,R,ugm-3,57,R,ugm-3,97,R,ugm-3,,,,24,R,ugm-3
04-01-1995,06:00,,,,21,R,ugm-3 (GRAV EQ),41,R,ugm-3,57,R,ugm-3,120,R,ugm-3,,,,24,R,ugm-3
04-01-1995,07:00,,,,26,R,ugm-3 (GRAV EQ),73,R,ugm-3,63,R,ugm-3,174,R,ugm-3,,,,32,R,ugm-3
04-01-1995,08:00,,,,39,R,ugm-3 (GRAV EQ),149,R,ugm-3,73,R,ugm-3,300,R,ugm-3,,,,35,R,ugm-3
04-01-1995,09:00,,,,47,R,ugm-3 (GRAV EQ),193,R,ugm-3,74,R,ugm-3,369,R,ugm-3,,,,35,R,ugm-3
04-01-1995,10:00,,,,44,R,ugm-3 (GRAV EQ),133,R,ugm-3,71,R,ugm-3,273,R,ugm-3,,,,29,R,ugm-3
04-01-1995,11:00,,,,39,R,ugm-3 (GRAV EQ),75,R,ugm-3,65,R,ugm-3,180,R,ugm-3,,,,40,R,ugm-3
04-01-1995,12:00,,,,39,R,ugm-3 (GRAV EQ),61,R,ugm-3,55,R,ugm-3,149,R,ugm-3,,,,32,R,ugm-3
04-01-1995,13:00,,,,35,R,ugm-3 (GRAV EQ),53,R,ugm-3,57,R,ugm-3,138,R,ugm-3,,,,27,R,ugm-3
04-01-1995,14:00,,,,35,R,ugm-3 (GRAV EQ),45,R,ugm-3,55,R,ugm-3,124,R,ugm-3,,,,27,R,ugm-3
04-01-1995,15:00,,,,42,R,ugm-3 (GRAV EQ),61,R,ugm-3,57,R,ugm-3,151,R,ugm-3,16,R,ugm-3,27,R,ugm-3
04-01-1995,16:00,,,,44,R,ugm-3 (GRAV EQ),80,R,ugm-3,71,R,ugm-3,193,R,ugm-3,10,R,ugm-3,37,R,ugm-3
04-01-1995,17:00,,,,39,R,ugm-3 (GRAV EQ),103,R,ugm-3,67,R,ugm-3,223,R,ugm-3,8,R,ugm-3,29,R,ugm-3
04-01-1995,18:00,,,,36,R,ugm-3 (GRAV EQ),105,R,ugm-3,69,R,ugm-3,229,R,ugm-3,8,R,ugm-3,21,R,ugm-3
04-01-1995,19:00,,,,33,R,ugm-3 (GRAV EQ),91,R,ugm-3,67,R,ugm-3,206,R,ugm-3,8,R,ugm-3,21,R,ugm-3
04-01-1995,20:00,,,,31,R,ugm-3 (GRAV EQ),73,R,ugm-3,61,R,ugm-3,172,R,ugm-3,8,R,ugm-3,19,R,ugm-3
04-01-1995,21:00,,,,29,R,ugm-3 (GRAV EQ),59,R,ugm-3,55,R,ugm-3,145,R,ugm-3,10,R,ugm-3,27,R,ugm-3
04-01-1995,22:00,,,,31,R,ugm-3 (GRAV EQ),48,R,ugm-3,52,R,ugm-3,124,R,ugm-3,10,R,ugm-3,21,R,ugm-3
04-01-1995,23:00,,,,35,R,ugm-3 (GRAV EQ),63,R,ugm-3,57,R,ugm-3,153,R,ugm-3,8,R,ugm-3,24,R,ugm-3
04-01-1995,24:00,,,,29,R,ugm-3 (GRAV EQ),35,R,ugm-3,48,R,ugm-3,101,R,ugm-3,10,R,ugm-3,27,R,ugm-3
05-01-1995,01:00,,,,31,R,ugm-3 (GRAV EQ),30,R,ugm-3,48,R,ugm-3,94,R,ugm-3,10,R,ugm-3,27,R,ugm-3
05-01-1995,02:00,,,,29,R,ugm-3 (GRAV EQ),21,R,ugm-3,48,R,ugm-3,80,R,ugm-3,12,R,ugm-3,40,R,ugm-3
05-01-1995,03:00,,,,26,R,ugm-3 (GRAV EQ),15,R,ugm-3,42,R,ugm-3,65,R,ugm-3,14,R,ugm-3,40,R,ugm-3
05-01-1995,04:00,,,,27,R,ugm-3 (GRAV EQ),13,R,ugm-3,34,R,ugm-3,53,R,ugm-3,18,R,ugm-3,27,R,ugm-3
05-01-1995,05:00,,,,25,R,ugm-3 (GRAV EQ),10,R,ugm-3,29,R,ugm-3,44,R,ugm-3,22,R,ugm-3,19,R,ugm-3
05-01-1995,06:00,,,,25,R,ugm-3 (GRAV EQ),15,R,ugm-3,29,R,ugm-3,52,R,ugm-3,20,R,ugm-3,19,R,ugm-3
05-01-1995,07:00,,,,29,R,ugm-3 (GRAV EQ),29,R,ugm-3,40,R,ugm-3,84,R,ugm-3,12,R,ugm-3,19,R,ugm-3
05-01-1995,08:00,,,,31,R,ugm-3 (GRAV EQ),54,R,ugm-3,53,R,ugm-3,136,R,ugm-3,10,R,ugm-3,19,R,ugm-3
05-01-1995,09:00,,,,31,R,ugm-3 (GRAV EQ),66,R,ugm-3,53,R,ugm-3,155,R,ugm-3,8,R,ugm-3,21,R,ugm-3
05-01-1995,10:00,,,,31,R,ugm-3 (GRAV EQ),79,R,ugm-3,61,R,ugm-3,181,R,ugm-3,8,R,ugm-3,21,R,ugm-3
05-01-1995,11:00,,,,25,R,ugm-3 (GRAV EQ),68,R,ugm-3,55,R,ugm-3,159,R,ugm-3,10,R,ugm-3,19,R,ugm-3
05-01-1995,12:00,,,,29,R,ugm-3 (GRAV EQ),58,R,ugm-3,59,R,ugm-3,147,R,ugm-3,10,R,ugm-3,13,R,ugm-3
05-01-1995,13:00,,,,26,R,ugm-3 (GRAV EQ),59,R,ugm-3,63,R,ugm-3,153,R,ugm-3,10,R,ugm-3,13,R,ugm-3
05-01-1995,14:00,,,,17,R,ugm-3 (GRAV EQ),50,R,ugm-3,50,R,ugm-3,126,R,ugm-3,14,R,ugm-3,11,R,ugm-3
05-01-1995,15:00,,,,,,,,,,,,,,,,,,,,,
05-01-1995,16:00,,,,,,,,,,,,,,,,,,,,,
05-01-1995,17:00,,,,12,R,ugm-3 (GRAV EQ),59,R,ugm-3,59,R,ugm-3,149,R,ugm-3,6,R,ugm-3,8,R,ugm-3
05-01-1995,18:00,,,,9,R,ugm-3 (GRAV EQ),68,R,ugm-3,61,R,ugm-3,164,R,ugm-3,6,R,ugm-3,8,R,ugm-3
05-01-1995,19:00,,,,10,R,ugm-3 (GRAV EQ),71,R,ugm-3,55,R,ugm-3,164,R,ugm-3,6,R,ugm-3,11,R,ugm-3
05-01-1995,20:00,,,,10,R,ugm-3 (GRAV EQ),70,R,ugm-3,57,R,ugm-3,164,R,ugm-3,6,R,ugm-3,11,R,ugm-3
05-01-1995,21:00,,,,13,R,ugm-3 (GRAV EQ),55,R,ugm-3,55,R,ugm-3,139,R,ugm-3,6,R,ugm-3,8,R,ugm-3
05-01-1995,22:00,,,,14,R,ugm-3 (GRAV EQ),78,R,ugm-3,59,R,ugm-3,178,R,ugm-3,6,R,ugm-3,8,R,ugm-3
05-01-1995,23:00,,,,18,R,ugm-3 (GRAV EQ),133,R,ugm-3,61,R,ugm-3,264,R,ugm-3,6,R,ugm-3,11,R,ugm-3
05-01-1995,24:00,,,,34,R,ugm-3 (GRAV EQ),83,R,ugm-3,57,R,ugm-3,183,R,ugm-3,6,R,ugm-3,13,R,ugm-3
06-01-1995,01:00,,,,25,R,ugm-3 (GRAV EQ),46,R,ugm-3,55,R,ugm-3,126,R,ugm-3,6,R,ugm-3,8,R,ugm-3
06-01-1995,02:00,,,,25,R,ugm-3 (GRAV EQ),68,R,ugm-3,57,R,ugm-3,160,R,ugm-3,6,R,ugm-3,13,R,ugm-3
06-01-1995,03:00,,,,26,R,ugm-3 (GRAV EQ),61,R,ugm-3,55,R,ugm-3,149,R,ugm-3,6,R,ugm-3,19,R,ugm-3
06-01-1995,04:00,,,,29,R,ugm-3 (GRAV EQ),53,R,ugm-3,53,R,ugm-3,134,R,ugm-3,6,R,ugm-3,29,R,ugm-3
06-01-1995,05:00,,,,30,R,ugm-3 (GRAV EQ),46,R,ugm-3,53,R,ugm-3,124,R,ugm-3,6,R,ugm-3,27,R,ugm-3
06-01-1995,06:00,,,,31,R,ugm-3 (GRAV EQ),38,R,ugm-3,52,R,ugm-3,109,R,ugm-3,6,R,ugm-3,43,R,ugm-3
06-01-1995,07:00,,,,36,R,ugm-3 (GRAV EQ),51,R,ugm-3,59,R,ugm-3,138,R,ugm-3,6,R,ugm-3,168,R,ugm-3
06-01-1995,08:00,,,,42,R,ugm-3 (GRAV EQ),91,R,ugm-3,61,R,ugm-3,201,R,ugm-3,8,R,ugm-3,223,R,ugm-3
06-01-1995,09:00,,,,44,R,ugm-3 (GRAV EQ),140,R,ugm-3,65,R,ugm-3,279,R,ugm-3,8,R,ugm-3,144,R,ugm-3
06-01-1995,10:00,,,,48,R,ugm-3 (GRAV EQ),111,R,ugm-3,65,R,ugm-3,235,R,ugm-3,8,R,ugm-3,154,R,ugm-3
06-01-1995,11:00,,,,43,R,ugm-3 (GRAV EQ),81,R,ugm-3,57,R,ugm-3,181,R,ugm-3,8,R,ugm-3,128,R,ugm-3
06-01-1995,12:00,,,,43,R,ugm-3 (GRAV EQ),73,R,ugm-3,59,R,ugm-3,170,R,ugm-3,10,R,ugm-3,56,R,ugm-3
06-01-1995,13:00,,,,48,R,ugm-3 (GRAV EQ),,,,,,,,,,10,R,ugm-3,,,
06-01-1995,14:00,,,,46,R,ugm-3 (GRAV EQ),,,,,,,,,,10,R,ugm-3,,,
06-01-1995,15:00,,,,,,,,,,,,,,,,,,,,,
06-01-1995,16:00,,,,,,,,,,,,,,,,,,,,,
06-01-1995,17:00,,,,,,,,,,,,,,,,,,,,,
06-01-1995,18:00,,,,,,,,,,,,,,,,,,,,,
06-01-1995,19:00,,,,38,R,ugm-3 (GRAV EQ),116,R,ugm-3,67,R,ugm-3,244,R,ugm-3,,,,51,R,ugm-3
06-01-1995,20:00,,,,47,R,ugm-3 (GRAV EQ),115,R,ugm-3,67,R,ugm-3,243,R,ugm-3,6,R,ugm-3,56,R,ugm-3
06-01-1995,21:00,,,,46,R,ugm-3 (GRAV EQ),89,R,ugm-3,67,R,ugm-3,202,R,ugm-3,6,R,ugm-3,56,R,ugm-3
06-01-1995,22:00,,,,40,R,ugm-3 (GRAV EQ),78,R,ugm-3,57,R,ugm-3,176,R,ugm-3,6,R,ugm-3,72,R,ugm-3
06-01-1995,23:00,,,,48,R,ugm-3 (GRAV EQ),114,R,ugm-3,61,R,ugm-3,235,R,ugm-3,8,R,ugm-3,117,R,ugm-3
06-01-1995,24:00,,,,49,R,ugm-3 (GRAV EQ),101,R,ugm-3,55,R,ugm-3,210,R,ugm-3,8,R,ugm-3,152,R,ugm-3
07-01-1995,01:00,,,,49,R,ugm-3 (GRAV EQ),99,R,ugm-3,53,R,ugm-3,204,R,ugm-3,8,R,ugm-3,104,R,ugm-3
07-01-1995,02:00,,,,44,R,ugm-3 (GRAV EQ),73,R,ugm-3,53,R,ugm-3,164,R,ugm-3,6,R,ugm-3,90,R,ugm-3
07-01-1995,03:00,,,,43,R,ugm-3 (GRAV EQ),68,R,ugm-3,52,R,ugm-3,155,R,ugm-3,6,R,ugm-3,88,R,ugm-3
07-01-1995,04:00,,,,44,R,ugm-3 (GRAV EQ),78,R,ugm-3,52,R,ugm-3,170,R,ugm-3,6,R,ugm-3,90,R,ugm-3
07-01-1995,05:00,,,,51,R,ugm-3 (GRAV EQ),78,R,ugm-3,55,R,ugm-3,174,R,ugm-3,8,R,ugm-3,51,R,ugm-3
07-01-1995,06:00,,,,35,R,ugm-3 (GRAV EQ),70,R,ugm-3,59,R,ugm-3,166,R,ugm-3,10,R,ugm-3,106,R,ugm-3
07-01-1995,07:00,,,,46,R,ugm-3 (GRAV EQ),86,R,ugm-3,50,R,ugm-3,181,R,ugm-3,6,R,ugm-3,112,R,ugm-3
07-01-1995,08:00,,,,46,R,ugm-3 (GRAV EQ),90,R,ugm-3,53,R,ugm-3,191,R,ugm-3,6,R,ugm-3,112,R,ugm-3
07-01-1995,09:00,,,,43,R,ugm-3 (GRAV EQ),154,R,ugm-3,59,R,ugm-3,294,R,ugm-3,8,R,ugm-3,82,R,ugm-3
07-01-1995,10:00,,,,70,R,ugm-3 (GRAV EQ),299,R,ugm-3,71,R,ugm-3,527,R,ugm-3,8,R,ugm-3,64,R,ugm-3
07-01-1995,11:00,,,,65,R,ugm-3 (GRAV EQ),273,R,ugm-3,74,R,ugm-3,491,R,ugm-3,8,R,ugm-3,69,R,ugm-3
07-01-1995,12:00,,,,68,R,ugm-3 (GRAV EQ),229,R,ugm-3,76,R,ugm-3,426,R,ugm-3,8,R,ugm-3,43,R,ugm-3
07-01-1995,13:00,,,,59,R,ugm-3 (GRAV EQ),180,R,ugm-3,69,R,ugm-3,344,R,ugm-3,8,R,ugm-3,43,R,ugm-3
07-01-1995,14:00,,,,47,R,ugm-3 (GRAV EQ),146,R,ugm-3,71,R,ugm-3,294,R,ugm-3,6,R,ugm-3,37,R,ugm-3
07-01-1995,15:00,,,,46,R,ugm-3 (GRAV EQ),144,R,ugm-3,74,R,ugm-3,294,R,ugm-3,6,R,ugm-3,24,R,ugm-3
07-01-1995,16:00,,,,43,R,ugm-3 (GRAV EQ),119,R,ugm-3,69,R,ugm-3,250,R,ugm-3,6,R,ugm-3,16,R,ugm-3
07-01-1995,17:00,,,,,,,105,R,ugm-3,67,R,ugm-3,227,R,ugm-3,6,R,ugm-3,16,R,ugm-3
07-01-1995,18:00,,,,,,,116,R,ugm-3,65,R,ugm-3,243,R,ugm-3,4,R,ugm-3,13,R,ugm-3
07-01-1995,19:00,,,,25,R,ugm-3 (GRAV EQ),111,R,ugm-3,65,R,ugm-3,235,R,ugm-3,4,R,ugm-3,11,R,ugm-3
07-01-1995,20:00,,,,22,R,ugm-3 (GRAV EQ),76,R,ugm-3,63,R,ugm-3,180,R,ugm-3,4,R,ugm-3,21,R,ugm-3
07-01-1995,21:00,,,,30,R,ugm-3 (GRAV EQ),59,R,ugm-3,61,R,ugm-3,151,R,ugm-3,4,R,ugm-3,21,R,ugm-3
07-01-1995,22:00,,,,35,R,ugm-3 (GRAV EQ),64,R,ugm-3,55,R,ugm-3,153,R,ugm-3,4,R,ugm-3,19,R,ugm-3
07-01-1995,23:00,,,,29,R,ugm-3 (GRAV EQ),50,R,ugm-3,53,R,ugm-3,130,R,ugm-3,4,R,ugm-3,16,R,ugm-3
07-01-1995,24:00,,,,31,R,ugm-3 (GRAV EQ),61,R,ugm-3,55,R,ugm-3,149,R,ugm-3,4,R,ugm-3,11,R,ugm-3
08-01-1995,01:00,,,,31,R,ugm-3 (GRAV EQ),75,R,ugm-3,50,R,ugm-3,164,R,ugm-3,4,R,ugm-3,11,R,ugm-3
08-01-1995,02:00,,,,14,R,ugm-3 (GRAV EQ),25,R,ugm-3,48,R,ugm-3,86,R,ugm-3,4,R,ugm-3,13,R,ugm-3
08-01-1995,03:00,,,,20,R,ugm-3 (GRAV EQ),33,R,ugm-3,46,R,ugm-3,96,R,ugm-3,4,R,ugm-3,8,R,ugm-3
08-01-1995,04:00,,,,8,R,ugm-3 (GRAV EQ),16,R,ugm-3,38,R,ugm-3,63,R,ugm-3,10,R,ugm-3,8,R,ugm-3
08-01-1995,05:00,,,,10,R,ugm-3 (GRAV EQ),14,R,ugm-3,42,R,ugm-3,63,R,ugm-3,10,R,ugm-3,8,R,ugm-3
08-01-1995,06:00,,,,4,R,ugm-3 (GRAV EQ),9,R,ugm-3,36,R,ugm-3,50,R,ugm-3,12,R,ugm-3,11,R,ugm-3
08-01-1995,07:00,,,,8,R,ugm-3 (GRAV EQ),13,R,ugm-3,36,R,ugm-3,55,R,ugm-3,16,R,ugm-3,11,R,ugm-3
08-01-1995,08:00,,,,4,R,ugm-3 (GRAV EQ),10,R,ugm-3,46,R,ugm-3,61,R,ugm-3,14,R,ugm-3,11,R,ugm-3
08-01-1995,09:00,,,,8,R,ugm-3 (GRAV EQ),21,R,ugm-3,52,R,ugm-3,84,R,ugm-3,10,R,ugm-3,8,R,ugm-3
08-01-1995,10:00,,,,9,R,ugm-3 (GRAV EQ),25,R,ugm-3,55,R,ugm-3,94,R,ugm-3,8,R,ugm-3,8,R,ugm-3
08-01-1995,11:00,,,,12,R,ugm-3 (GRAV EQ),40,R,ugm-3,59,R,ugm-3,120,R,ugm-3,6,R,ugm-3,8,R,ugm-3
08-01-1995,12:00,,,,7,R,ugm-3 (GRAV EQ),54,R,ugm-3,57,R,ugm-3,139,R,ugm-3,6,R,ugm-3,11,R,ugm-3
08-01-1995,13:00,,,,25,R,ugm-3 (GRAV EQ),75,R,ugm-3,59,R,ugm-3,174,R,ugm-3,6,R,ugm-3,8,R,ugm-3
08-01-1995,14:00,,,,14,R,ugm-3 (GRAV EQ),93,R,ugm-3,61,R,ugm-3,202,R,ugm-3,8,R,ugm-3,13,R,ugm-3
08-01-1995,15:00,,,,9,R,ugm-3 (GRAV EQ),65,R,ugm-3,61,R,ugm-3,160,R,ugm-3,8,R,ugm-3,27,R,ugm-3
08-01-1995,16:00,,,,22,R,ugm-3 (GRAV EQ),75,R,ugm-3,63,R,ugm-3,178,R,ugm-3,6,R,ugm-3,24,R,ugm-3
08-01-1995,17:00,,,,29,R,ugm-3 (GRAV EQ),81,R,ugm-3,69,R,ugm-3,193,R,ugm-3,4,R,ugm-3,19,R,ugm-3
08-01-1995,18:00,,,,22,R,ugm-3 (GRAV EQ),91,R,ugm-3,71,R,ugm-3,210,R,ugm-3,6,R,ugm-3,16,R,ugm-3
08-01-1995,19:00,,,,27,R,ugm-3 (GRAV EQ),79,R,ugm-3,73,R,ugm-3,193,R,ugm-3,6,R,ugm-3,13,R,ugm-3
08-01-1995,20:00,,,,27,R,ugm-3 (GRAV EQ),66,R,ugm-3,69,R,ugm-3,170,R,ugm-3,8,R,ugm-3,11,R,ugm-3
08-01-1995,21:00,,,,26,R,ugm-3 (GRAV EQ),49,R,ugm-3,67,R,ugm-3,141,R,ugm-3,6,R,ugm-3,19,R,ugm-3
08-01-1995,22:00,,,,31,R,ugm-3 (GRAV EQ),86,R,ugm-3,65,R,ugm-3,197,R,ugm-3,6,R,ugm-3,21,R,ugm-3
08-01-1995,23:00,,,,27,R,ugm-3 (GRAV EQ),81,R,ugm-3,65,R,ugm-3,189,R,ugm-3,6,R,ugm-3,24,R,ugm-3
08-01-1995,24:00,,,,34,R,ugm-3 (GRAV EQ),113,R,ugm-3,67,R,ugm-3,239,R,ugm-3,6,R,ugm-3,32,R,ugm-3
09-01-1995,01:00,,,,29,R,ugm-3 (GRAV EQ),84,R,ugm-3,63,R,ugm-3,191,R,ugm-3,6,R,ugm-3,29,R,ugm-3
09-01-1995,02:00,,,,22,R,ugm-3 (GRAV EQ),41,R,ugm-3,53,R,ugm-3,117,R,ugm-3,4,R,ugm-3,24,R,ugm-3
09-01-1995,03:00,,,,17,R,ugm-3 (GRAV EQ),13,R,ugm-3,50,R,ugm-3,69,R,ugm-3,8,R,ugm-3,16,R,ugm-3
09-01-1995,04:00,,,,16,R,ugm-3 (GRAV EQ),14,R,ugm-3,53,R,ugm-3,74,R,ugm-3,6,R,ugm-3,19,R,ugm-3
09-01-1995,05:00,,,,20,R,ugm-3 (GRAV EQ),23,R,ugm-3,53,R,ugm-3,88,R,ugm-3,6,R,ugm-3,16,R,ugm-3
09-01-1995,06:00,,,,21,R,ugm-3 (GRAV EQ),38,R,ugm-3,52,R,ugm-3,109,R,ugm-3,6,R,ugm-3,24,R,ugm-3
09-01-1995,07:00,,,,18,R,ugm-3 (GRAV EQ),34,R,ugm-3,57,R,ugm-3,109,R,ugm-3,6,R,ugm-3,24,R,ugm-3
09-01-1995,08:00,,,,27,R,ugm-3 (GRAV EQ),84,R,ugm-3,59,R,ugm-3,187,R,ugm-3,6,R,ugm-3,32,R,ugm-3
09-01-1995,09:00,,,,34,R,ugm-3 (GRAV EQ),115,R,ugm-3,59,R,ugm-3,235,R,ugm-3,6,R,ugm-3,29,R,ugm-3
09-01-1995,10:00,,,,31,R,ugm-3 (GRAV EQ),113,R,ugm-3,59,R,ugm-3,231,R,ugm-3,6,R,ugm-3,24,R,ugm-3
09-01-1995,11:00,,,,61,R,ugm-3 (GRAV EQ),138,R,ugm-3,67,R,ugm-3,277,R,ugm-3,6,R,ugm-3,27,R,ugm-3
09-01-1995,12:00,,,,38,R,ugm-3 (GRAV EQ),85,R,ugm-3,61,R,ugm-3,191,R,ugm-3,6,R,ugm-3,24,R,ugm-3
09-01-1995,13:00,,,,40,R,ugm-3 (GRAV EQ),78,R,ugm-3,69,R,ugm-3,187,R,ugm-3,6,R,ugm-3,16,R,ugm-3
09-01-1995,14:00,,,,34,R,ugm-3 (GRAV EQ),41,R,ugm-3,63,R,ugm-3,126,R,ugm-3,10,R,ugm-3,24,R,ugm-3
09-01-1995,15:00,,,,29,R,ugm-3 (GRAV EQ),20,R,ugm-3,59,R,ugm-3,90,R,ugm-3,18,R,ugm-3,16,R,ugm-3
09-01-1995,16:00,,,,34,R,ugm-3 (GRAV EQ),21,R,ugm-3,61,R,ugm-3,94,R,ugm-3,14,R,ugm-3,16,R,ugm-3
09-01-1995,17:00,,,,35,R,ugm-3 (GRAV EQ),25,R,ugm-3,63,R,ugm-3,101,R,ugm-3,12,R,ugm-3,27,R,ugm-3
09-01-1995,18:00,,,,35,R,ugm-3 (GRAV EQ),21,R,ugm-3,59,R,ugm-3,92,R,ugm-3,14,R,ugm-3,21,R,ugm-3
09-01-1995,19:00,,,,27,R,ugm-3 (GRAV EQ),16,R,ugm-3,59,R,ugm-3,84,R,ugm-3,16,R,ugm-3,16,R,ugm-3
09-01-1995,20:00,,,,30,R,ugm-3 (GRAV EQ),19,R,ugm-3,57,R,ugm-3,86,R,ugm-3,10,R,ugm-3,19,R,ugm-3
09-01-1995,21:00,,,,36,R,ugm-3 (GRAV EQ),14,R,ugm-3,55,R,ugm-3,76,R,ugm-3,14,R,ugm-3,21,R,ugm-3
09-01-1995,22:00,,,,29,R,ugm-3 (GRAV EQ),13,R,ugm-3,52,R,ugm-3,71,R,ugm-3,14,R,ugm-3,21,R,ugm-3
09-01-1995,23:00,,,,22,R,ugm-3 (GRAV EQ),15,R,ugm-3,55,R,ugm-3,78,R,ugm-3,12,R,ugm-3,27,R,ugm-3
09-01-1995,24:00,,,,12,R,ugm-3 (GRAV EQ),9,R,ugm-3,42,R,ugm-3,55,R,ugm-3,26,R,ugm-3,35,R,ugm-3
10-01-1995,01:00,,,,8,R,ugm-3 (GRAV EQ),6,R,ugm-3,27,R,ugm-3,36,R,ugm-3,38,R,ugm-3,72,R,ugm-3
10-01-1995,02:00,,,,13,R,ugm-3 (GRAV EQ),5,R,ugm-3,17,R,ugm-3,25,R,ugm-3,50,R,ugm-3,67,R,ugm-3
10-01-1995,03:00,,,,5,R,ugm-3 (GRAV EQ),5,R,ugm-3,13,R,ugm-3,21,R,ugm-3,50,R,ugm-3,35,R,ugm-3
10-01-1995,04:00,,,,26,R,ugm-3 (GRAV EQ),4,R,ugm-3,11,R,ugm-3,17,R,ugm-3,56,R,ugm-3,11,R,ugm-3
10-01-1995,05:00,,,,22,R,ugm-3 (GRAV EQ),4,R,ugm-3,11,R,ugm-3,17,R,ugm-3,54,R,ugm-3,21,R,ugm-3
10-01-1995,06:00,,,,36,R,ugm-3 (GRAV EQ),10,R,ugm-3,32,R,ugm-3,48,R,ugm-3,36,R,ugm-3,141,R,ugm-3
10-01-1995,07:00,,,,26,R,ugm-3 (GRAV EQ),16,R,ugm-3,38,R,ugm-3,63,R,ugm-3,30,R,ugm-3,160,R,ugm-3
10-01-1995,08:00,,,,47,R,ugm-3 (GRAV EQ),45,R,ugm-3,61,R,ugm-3,130,R,ugm-3,16,R,ugm-3,213,R,ugm-3
10-01-1995,09:00,,,,61,R,ugm-3 (GRAV EQ),64,R,ugm-3,69,R,ugm-3,166,R,ugm-3,12,R,ugm-3,239,R,ugm-3
10-01-1995,10:00,,,,55,R,ugm-3 (GRAV EQ),91,R,ugm-3,74,R,ugm-3,214,R,ugm-3,10,R,ugm-3,48,R,ugm-3
10-01-1995,11:00,,,,39,R,ugm-3 (GRAV EQ),80,R,ugm-3,69,R,ugm-3,191,R,ugm-3,8,R,ugm-3,35,R,ugm-3
10-01-1995,12:00,,,,31,R,ugm-3 (GRAV EQ),71,R,ugm-3,67,R,ugm-3,176,R,ugm-3,8,R,ugm-3,48,R,ugm-3
10-01-1995,13:00,,,,27,R,ugm-3 (GRAV EQ),56,R,ugm-3,63,R,ugm-3,149,R,ugm-3,10,R,ugm-3,27,R,ugm-3
10-01-1995,14:00,,,,26,R,ugm-3 (GRAV EQ),50,R,ugm-3,63,R,ugm-3,139,R,ugm-3,10,R,ugm-3,19,R,ugm-3
10-01-1995,15:00,,,,23,R,ugm-3 (GRAV EQ),33,R,ugm-3,63,R,ugm-3,113,R,ugm-3,12,R,ugm-3,19,R,ugm-3
10-01-1995,16:00,,,,25,R,ugm-3 (GRAV EQ),24,R,ugm-3,59,R,ugm-3,96,R,ugm-3,16,R,ugm-3,16,R,ugm-3
10-01-1995,17:00,,,,23,R,ugm-3 (GRAV EQ),34,R,ugm-3,69,R,ugm-3,120,R,ugm-3,10,R,ugm-3,16,R,ugm-3
10-01-1995,18:00,,,,21,R,ugm-3 (GRAV EQ),28,R,ugm-3,59,R,ugm-3,101,R,ugm-3,10,R,ugm-3,13,R,ugm-3
10-01-1995,19:00,,,,23,R,ugm-3 (GRAV EQ),36,R,ugm-3,59,R,ugm-3,115,R,ugm-3,8,R,ugm-3,19,R,ugm-3
10-01-1995,20:00,,,,25,R,ugm-3 (GRAV EQ),43,R,ugm-3,57,R,ugm-3,122,R,ugm-3,4,R,ugm-3,43,R,ugm-3
10-01-1995,21:00,,,,25,R,ugm-3 (GRAV EQ),31,R,ugm-3,52,R,ugm-3,99,R,ugm-3,6,R,ugm-3,61,R,ugm-3
10-01-1995,22:00,,,,13,R,ugm-3 (GRAV EQ),33,R,ugm-3,40,R,ugm-3,90,R,ugm-3,20,R,ugm-3,29,R,ugm-3
10-01-1995,23:00,,,,7,R,ugm-3 (GRAV EQ),19,R,ugm-3,34,R,ugm-3,63,R,ugm-3,30,R,ugm-3,13,R,ugm-3
10-01-1995,24:00,,,,10,R,ugm-3 (GRAV EQ),25,R,ugm-3,34,R,ugm-3,73,R,ugm-3,22,R,ugm-3,16,R,ugm-3
11-01-1995,01:00,,,,8,R,ugm-3 (GRAV EQ),16,R,ugm-3,42,R,ugm-3,67,R,ugm-3,28,R,ugm-3,11,R,ugm-3
11-01-1995,02:00,,,,10,R,ugm-3 (GRAV EQ),4,R,ugm-3,29,R,ugm-3,34,R,ugm-3,40,R,ugm-3,11,R,ugm-3
11-01-1995,03:00,,,,8,R,ugm-3 (GRAV EQ),4,R,ugm-3,19,R,ugm-3,25,R,ugm-3,46,R,ugm-3,11,R,ugm-3
11-01-1995,04:00,,,,13,R,ugm-3 (GRAV EQ),5,R,ugm-3,19,R,ugm-3,27,R,ugm-3,42,R,ugm-3,11,R,ugm-3
11-01-1995,05:00,,,,14,R,ugm-3 (GRAV EQ),5,R,ugm-3,21,R,ugm-3,29,R,ugm-3,36,R,ugm-3,32,R,ugm-3
11-01-1995,06:00,,,,16,R,ugm-3 (GRAV EQ),13,R,ugm-3,40,R,ugm-3,59,R,ugm-3,20,R,ugm-3,59,R,ugm-3